TimeAKST,TemperatureF,Dew PointF,Humidity,Sea Level PressureIn,VisibilityMPH,Wind Direction,Wind SpeedMPH,Gust SpeedMPH,PrecipitationIn,Events,Conditions,WindDirDegrees,DateUTC
12:16 AM,-23.8,-9999,N/A,29.78,10.0,Calm,Calm,-,N/A,,Clear,0,2013-02-14 09:16:00
12:36 AM,-23.8,-25.6,91,29.78,10.0,NE,3.5,-,N/A,,Clear,50,2013-02-14 09:36:00
12:56 AM,-25.6,-9999,N/A,29.78,10.0,Calm,Calm,-,N/A,,Clear,0,2013-02-14 09:56:00
1:16 AM,-23.8,-9999,N/A,29.78,10.0,Calm,Calm,-,N/A,,Clear,0,2013-02-14 10:16:00
1:36 AM,-25.6,-9999,N/A,29.78,10.0,Calm,Calm,-,N/A,,Clear,0,2013-02-14 10:36:00
1:56 AM,-25.6,-9999,N/A,29.78,10.0,Calm,Calm,-,N/A,,Clear,0,2013-02-14 10:56:00
2:16 AM,-22.0,-9999,N/A,29.78,10.0,Calm,Calm,-,N/A,,Clear,0,2013-02-14 11:16:00
2:36 AM,-27.4,-9999,N/A,29.78,10.0,Calm,Calm,-,N/A,,Clear,0,2013-02-14 11:36:00
3:16 AM,-25.6,-9999,N/A,29.77,10.0,Calm,Calm,-,N/A,,Clear,0,2013-02-14 12:16:00
6:56 AM,-20.2,-9999,N/A,29.73,10.0,Calm,Calm,-,N/A,,Clear,0,2013-02-14 15:56:00
7:16 AM,-22.0,-9999,N/A,29.73,10.0,Calm,Calm,-,N/A,,Clear,0,2013-02-14 16:16:00
7:36 AM,-20.2,-23.8,83,29.72,10.0,Calm,Calm,-,N/A,,Clear,0,2013-02-14 16:36:00
7:56 AM,-25.6,-9999,N/A,29.72,10.0,Calm,Calm,-,N/A,,Clear,0,2013-02-14 16:56:00
8:16 AM,-23.8,-9999,N/A,29.71,10.0,Calm,Calm,-,N/A,,Clear,0,2013-02-14 17:16:00
8:36 AM,-20.2,-38.2,39,29.71,10.0,Calm,Calm,-,N/A,,Clear,0,2013-02-14 17:36:00
8:56 AM,-23.8,-9999,N/A,29.71,10.0,Calm,Calm,-,N/A,,Clear,0,2013-02-14 17:56:00
9:16 AM,-22.0,-9999,N/A,29.70,10.0,Calm,Calm,-,N/A,,Clear,0,2013-02-14 18:16:00
9:36 AM,-20.2,-9999,N/A,29.70,10.0,Calm,Calm,-,N/A,,Clear,0,2013-02-14 18:36:00
9:56 AM,-18.4,-9999,N/A,29.70,10.0,Calm,Calm,-,N/A,,Clear,0,2013-02-14 18:56:00
10:16 AM,-18.4,-9999,N/A,29.69,10.0,Calm,Calm,-,N/A,,Clear,0,2013-02-14 19:16:00
10:36 AM,-18.4,-9999,N/A,29.69,10.0,Calm,Calm,-,N/A,,Clear,0,2013-02-14 19:36:00
10:56 AM,-18.4,-9999,N/A,29.69,10.0,Calm,Calm,-,N/A,,Clear,0,2013-02-14 19:56:00
11:16 AM,-16.6,-9999,N/A,29.68,10.0,NNE,3.5,-,N/A,,Clear,20,2013-02-14 20:16:00
11:36 AM,-14.8,-27.4,53,29.67,10.0,Calm,Calm,-,N/A,,Clear,0,2013-02-14 20:36:00
11:56 AM,-14.8,-29.2,48,29.67,10.0,Calm,Calm,-,N/A,,Clear,0,2013-02-14 20:56:00
12:16 PM,-13.0,-20.2,70,29.66,10.0,Calm,Calm,-,N/A,,Clear,0,2013-02-14 21:16:00
12:36 PM,-13.0,-25.6,53,29.66,10.0,Calm,Calm,-,N/A,,Clear,0,2013-02-14 21:36:00
12:56 PM,-11.2,-38.2,25,29.65,10.0,Calm,Calm,-,N/A,,Clear,0,2013-02-14 21:56:00
1:16 PM,-9.4,-9999,N/A,29.64,10.0,Calm,Calm,-,N/A,,Clear,0,2013-02-14 22:16:00
1:36 PM,-9.4,-9999,N/A,29.63,10.0,North,3.5,-,N/A,,Clear,350,2013-02-14 22:36:00
1:56 PM,-7.6,-9999,N/A,29.61,10.0,Calm,Calm,-,N/A,,Clear,0,2013-02-14 22:56:00
2:16 PM,-5.8,-27.4,35,29.59,10.0,Calm,Calm,-,N/A,,Clear,0,2013-02-14 23:16:00
2:36 PM,-5.8,-18.4,55,29.59,10.0,Calm,Calm,-,N/A,,Clear,0,2013-02-14 23:36:00
2:56 PM,-2.2,-14.8,55,29.57,10.0,Calm,Calm,-,N/A,,Clear,0,2013-02-14 23:56:00
3:16 PM,-5.8,-9999,N/A,29.56,10.0,Calm,Calm,-,N/A,,Clear,0,2013-02-15 00:16:00
3:36 PM,-2.2,-23.8,35,29.56,10.0,ENE,3.5,-,N/A,,Clear,60,2013-02-15 00:36:00
3:56 PM,-0.4,-22.0,36,29.54,10.0,ENE,4.6,-,N/A,,Clear,60,2013-02-15 00:56:00
4:16 PM,-2.2,-27.4,29,29.53,10.0,East,5.8,-,N/A,,Clear,90,2013-02-15 01:16:00
4:36 PM,-0.4,-9.4,66,29.53,10.0,Calm,Calm,-,N/A,,Clear,0,2013-02-15 01:36:00
4:56 PM,-2.2,-22.0,39,29.52,10.0,Calm,Calm,-,N/A,,Clear,0,2013-02-15 01:56:00
5:16 PM,-4.0,-27.4,32,29.52,10.0,Calm,Calm,-,N/A,,Clear,0,2013-02-15 02:16:00
5:36 PM,-2.2,-29.2,27,29.51,10.0,Calm,Calm,-,N/A,,Clear,0,2013-02-15 02:36:00
5:56 PM,-5.8,-9999,N/A,29.50,10.0,Calm,Calm,-,N/A,,Clear,0,2013-02-15 02:56:00
6:16 PM,-7.6,-29.2,34,29.50,10.0,Calm,Calm,-,N/A,,Clear,0,2013-02-15 03:16:00
6:36 PM,-2.2,-18.4,46,29.50,10.0,Calm,Calm,-,N/A,,Mostly Cloudy,0,2013-02-15 03:36:00
6:56 PM,-0.4,-5.8,78,29.49,10.0,East,5.8,-,N/A,,Mostly Cloudy,80,2013-02-15 03:56:00
7:16 PM,-0.4,-29.2,25,29.49,10.0,ENE,5.8,-,N/A,,Mostly Cloudy,70,2013-02-15 04:16:00
7:36 PM,1.4,-14.8,47,29.48,10.0,ENE,8.1,-,N/A,,Mostly Cloudy,70,2013-02-15 04:36:00
7:56 PM,1.4,-11.2,56,29.47,10.0,East,4.6,-,N/A,,Overcast,90,2013-02-15 04:56:00
8:16 PM,1.4,-5.8,72,29.46,10.0,Calm,Calm,-,N/A,,Overcast,0,2013-02-15 05:16:00
8:36 PM,1.4,-5.8,72,29.46,10.0,Calm,Calm,-,N/A,,Overcast,0,2013-02-15 05:36:00
8:56 PM,1.4,-0.4,92,29.46,10.0,Calm,Calm,-,N/A,,Overcast,0,2013-02-15 05:56:00
9:16 PM,-2.2,-14.8,55,29.46,10.0,Calm,Calm,-,N/A,,Mostly Cloudy,0,2013-02-15 06:16:00
9:36 PM,-0.4,-52.6,7,29.46,10.0,Calm,Calm,-,N/A,,Clear,0,2013-02-15 06:36:00
9:56 PM,-0.4,-27.4,27,29.46,10.0,East,4.6,-,N/A,,Mostly Cloudy,90,2013-02-15 06:56:00
10:16 PM,-2.2,-20.2,42,29.46,10.0,Calm,Calm,-,N/A,,Overcast,0,2013-02-15 07:16:00
10:36 PM,-0.4,-18.4,43,29.46,10.0,East,5.8,-,N/A,,Overcast,90,2013-02-15 07:36:00
10:56 PM,1.4,-9999,N/A,29.46,10.0,East,5.8,-,N/A,,Overcast,90,2013-02-15 07:56:00
11:16 PM,-0.4,-25.6,30,29.46,10.0,North,4.6,-,N/A,,Overcast,10,2013-02-15 08:16:00
11:36 PM,1.4,-14.8,47,29.46,10.0,East,3.5,-,N/A,,Overcast,100,2013-02-15 08:36:00
11:56 PM,3.2,-2.2,78,29.46,10.0,East,5.8,-,N/A,,Overcast,100,2013-02-15 08:56:00